Tracking 23760 objects as of 28-Oct-2021
HD Live streaming from Space Station
objects crossing your sky now

ARIANE 5 R/B

Track ARIANE 5 R/B now!


NORAD ID: 28904
Int'l Code: 2005-046C
Perigee: 460.9 km
Apogee: 35,396.4 km
Inclination: 7.4 °
Period: 628.3 minutes
Semi major axis: 24299 km
RCS: 36.3411 m2 (large)
Launch date: November 16, 2005
Source: France (FR)
Launch site: FRENCH GUIANA (FRGUI)

Note: This is a ROCKET BODY
aabbcc
Your satellite tracking list
Your tracking list is empty




NASA's NSSDC Master Catalog

Two Line Element Set (TLE):
1 28904U 05046C   21300.45933617 -.00000091  00000-0 -19132-3 0  9993
2 28904   7.4117  62.8475 7188480  80.0300 347.5892  2.29194123133361
Source of the keplerian elements: AFSPC